Location: Breux
(46.3269°N, 3.2993°E)
Time: 00:46:48
(UTC+00:00)

Cosmos 468 Rocket - Pass Details

Date: 09 April 2020
Orbit: 745 x 779 km, 74.0° (Epoch: 02 June)

Event Time Altitude Azimuth Distance (km) Brightness Sun altitude
Rises 20:33:44 0° 338° (NNW) 3,217 8.2 -20.6°
Reaches altitude 10° 20:36:06 10° 339° (NNW) 2,283 7.3 -20.9°
Maximum altitude 20:41:18 87° 69° (ENE) 756 3.8 -21.6°
Enters shadow 20:42:42 49° 155° (SSE) 956 4.1 -21.8°
